Teterboro, NJ

7:56 AM EST on December 08, 2016 (GMT -0500)
Teterboro

Weather History for KTEB - April, 2014

Change the Weather History Date:

Sunday, April 6, 2014

  Actual Average Record
Temperature  
Mean Temperature 49 °F -  
Max Temperature 62 °F 55 °F 77 °F (2005)
Min Temperature 36 °F 37 °F 27 °F (2016)
Degree Days  
Heating Degree Days 16    
Moisture  
Dew Point 23 °F    
Average Humidity 41    
Maximum Humidity 59    
Minimum Humidity 18    
Precipitation  
Precipitation 0.00 in - - ()
Sea Level Pressure  
Sea Level Pressure 30.16 in    
Wind  
Wind Speed 7 mph (WSW)    
Max Wind Speed 13 mph    
Max Gust Speed 18 mph    
Visibility 10 miles    
Events      
Averages and records for this station are not official NWS values.
T = Trace of Precipitation, MM = Missing Value Source: NWS Daily Summary

Daily Weather History Graph

Daily Weather History Graph

Search for Another Location

Airport or City:

Trip Planner

Search our weather history database for the weather conditions in past years. The results will help you decide how hot, cold, wet, or windy it might be!

Date:

Astronomy

Apr. 06, 2014 Rise Set
Actual Time 6:31 AM EDT 7:26 PM EDT
Civil Twilight 6:03 AM EDT 7:54 PM EDT
Nautical Twilight 5:30 AM EDT 8:27 PM EDT
Astronomical Twilight 4:56 AM EDT 9:02 PM EDT
Moon 11:28 AM EDT (4/6) 1:21 AM EDT (4/6)
Length of Visible Light 13h 50m
Length of Day
12h 54m
Waxing Crescent, 43% of the Moon is Illuminated
Apr 6
Waxing Crescent
Apr 7
First Quarter
Apr 15
Full
Apr 22
Last Quarter
Apr 29
New

Hourly Weather History & Observations

Time (EDT) Temp. Windchill Dew Point Humidity Pressure Visibility Wind Dir Wind Speed Gust Speed Precip Events Conditions
12:51 AM 39.9 °F 32.5 °F 21.9 °F 49% 30.09 in 10.0 mi NW 12.7 mph 18.4 mph N/A   Clear
1:51 AM 39.0 °F 33.4 °F 21.9 °F 50% 30.09 in 10.0 mi NW 8.1 mph - N/A   Clear
2:51 AM 39.0 °F 34.8 °F 21.9 °F 50% 30.09 in 10.0 mi West 5.8 mph - N/A   Clear
3:51 AM 37.0 °F 31.0 °F 21.9 °F 54% 30.10 in 10.0 mi West 8.1 mph - N/A   Clear
4:51 AM 37.0 °F 31.0 °F 23.0 °F 57% 30.12 in 10.0 mi West 8.1 mph - N/A   Clear
5:51 AM 36.0 °F 31.1 °F 23.0 °F 59% 30.15 in 10.0 mi West 5.8 mph - N/A   Clear
6:51 AM 36.0 °F 31.1 °F 21.9 °F 57% 30.18 in 10.0 mi West 5.8 mph - N/A   Clear
7:51 AM 39.0 °F 35.7 °F 21.9 °F 50% 30.19 in 10.0 mi NW 4.6 mph - N/A   Clear
8:51 AM 41.0 °F 36.4 °F 21.9 °F 47% 30.20 in 10.0 mi NNW 6.9 mph - N/A   Clear
9:51 AM 43.0 °F 39.5 °F 21.0 °F 42% 30.20 in 10.0 mi Variable 5.8 mph - N/A   Clear
10:51 AM 46.0 °F 44.8 °F 21.0 °F 37% 30.20 in 10.0 mi Variable 3.5 mph - N/A   Clear
11:51 AM 48.0 °F - 19.9 °F 33% 30.19 in 10.0 mi Variable 3.5 mph - N/A   Clear
12:51 PM 52.0 °F - 19.9 °F 28% 30.17 in 10.0 mi Variable 4.6 mph - N/A   Clear
1:51 PM 55.0 °F - 21.0 °F 27% 30.17 in 10.0 mi Variable 5.8 mph - N/A   Clear
2:51 PM 57.0 °F - 21.0 °F 25% 30.17 in 10.0 mi West 9.2 mph - N/A   Clear
3:51 PM 59.0 °F - 19.4 °F 22% 30.15 in 10.0 mi West 5.8 mph - N/A   Clear
4:51 PM 61.0 °F - 17.1 °F 18% 30.12 in 10.0 mi West 4.6 mph - N/A   Clear
5:51 PM 62.1 °F - 17.1 °F 18% 30.11 in 10.0 mi Variable 3.5 mph - N/A   Clear
6:51 PM 57.9 °F - 24.1 °F 27% 30.12 in 10.0 mi SSW 9.2 mph - N/A   Clear
7:51 PM 50.0 °F - 27.0 °F 41% 30.14 in 10.0 mi SSW 6.9 mph - N/A   Clear
8:51 PM 48.9 °F - 26.1 °F 41% 30.20 in 10.0 mi South 10.4 mph - N/A   Clear
9:51 PM 46.0 °F 44.8 °F 28.9 °F 51% 30.20 in 10.0 mi SE 3.5 mph - N/A   Clear
10:51 PM 45.0 °F 42.6 °F 28.9 °F 53% 30.20 in 10.0 mi South 4.6 mph - N/A   Clear
11:51 PM 44.1 °F 42.5 °F 30.0 °F 58% 30.20 in 10.0 mi SSE 3.5 mph - N/A   Clear